Location: Ravensburg
(47.7866°N, 9.6124°E)
Time: 19:51:25
(UTC+01:00)

ISS - Pass Details

Date: 17 November 2025
Orbit: 416 x 421 km, 51.6° (Epoch: 05 December)

Event Time Altitude Azimuth Distance (km) Brightness Sun altitude
Rises 18:08:24 0° 243° (WSW) 2,362 1.7 -14.4°
Reaches altitude 10° 18:10:30 10° 243° (WSW) 1,499 0.3 -14.7°
Maximum altitude 18:13:52 84° 156° (SSE) 426 -3.8 -15.3°
Enters shadow 18:15:07 36° 70° (ENE) 684 -3.2 -15.5°
